Home   Weather   Köniz   Past weeks

Flag for Switzerland Past Weather in Köniz, Bern, Switzerland — Yesterday and Last 2 Weeks

Now
21 °F

Ice fog.


Feels Like: 21 °F
Forecast: 11 / 33 °F
Wind: 2 mph from North

Location: Bern / Belp

Current Time: Jan 20, 2017 at 11:22:42 pm

Latest Report: Jan 20, 2017 at 10:50 pm


Visibility: 2 mi

Pressure: 30.39 "Hg (28.22 "Hg at 579m altitude)

Humidity: 93%

Dew Point: 19 °F

Location of KönizLocation

Past Weather in Köniz — Graph

°F

Köniz Temperature Yesterday

Maximum temperature yesterday: 27 °F (at 3:20 pm)
Minimum temperature yesterday: 12 °F (at 7:20 pm)
Average temperature yesterday: 21 °F

High & Low Weather Summary for the Past Weeks

 TemperatureHumidityPressure
High45 °F (Jan 12, 5:50 am)100% (Jan 5, 11:50 pm)30.57 "Hg (Jan 5, 11:50 pm)
Low1 °F (Jan 6, 8:20 am)63% (Jan 6, 3:20 pm)29.53 "Hg (Jan 12, 11:20 pm)
Average25 °F84%30.18 "Hg
* Reported Jan 5 10:20 pm — Jan 20 10:20 pm, Köniz, Weather by CustomWeather, © 2017

Note: Actual official high and low records may vary slightly from our data, if they occured in-between our weather recording intervals... More about our weather records

Advertising

Köniz Weather History for the Previous 24 Hours

Scroll right to see more
 ConditionsComfort  
Time TempWeatherWind HumidityBarometerVisibility
10:20 pm
Fri, Jan 20
21 °FIce fog.3 mph93%30.39 "Hg2 mi
9:50 pm21 °FIce fog.2 mph93%30.39 "Hg2 mi
9:20 pm21 °FIce fog.5 mph93%30.39 "Hg2 mi
8:50 pm21 °FIce fog.6 mph93%30.39 "Hg2 mi
8:20 pm21 °FIce fog.5 mph93%30.39 "Hg2 mi
7:50 pm23 °FIce fog.5 mph86%30.39 "Hg3 mi
7:20 pm23 °FLow clouds.2 mph86%30.39 "Hg3 mi
6:50 pm23 °FLow clouds.5 mph86%30.39 "Hg3 mi
6:20 pm21 °FOvercast.3 mph86%30.39 "Hg2 mi
5:50 pm19 °FIce fog.1 mph86%30.36 "Hg2 mi
5:20 pm21 °FPassing clouds.3 mph86%30.36 "Hg2 mi
4:50 pm23 °FPartly sunny.5 mph80%30.36 "Hg2 mi
4:20 pm23 °FPartly sunny.2 mph86%30.36 "Hg2 mi
3:50 pm23 °FPartly sunny.No wind86%30.36 "Hg2 mi
3:20 pm25 °FOvercast.5 mph80%30.36 "Hg2 mi
2:50 pm27 °FOvercast.2 mph74%30.36 "Hg2 mi
2:20 pm25 °FOvercast.3 mph80%30.36 "Hg2 mi
1:50 pm23 °FOvercast.3 mph86%30.39 "Hg2 mi
1:20 pm23 °FOvercast.2 mph80%30.39 "Hg2 mi
12:50 pm23 °FLow clouds.2 mph86%30.39 "Hg2 mi
12:20 pm23 °FLow clouds.3 mph86%30.39 "Hg2 mi
11:50 am23 °FLow clouds.2 mph86%30.39 "Hg2 mi
11:20 am23 °FLow clouds.1 mph80%30.42 "Hg2 mi
10:50 am21 °FLow clouds.3 mph86%30.42 "Hg2 mi
10:20 am21 °FLow clouds.5 mph86%30.42 "Hg2 mi
9:50 am21 °FLow clouds.6 mph86%30.42 "Hg2 mi
9:20 am21 °FLow clouds.5 mph86%30.39 "Hg2 mi
8:50 am19 °FLow clouds.5 mph93%30.39 "Hg3 mi
8:20 am19 °FLow clouds.5 mph93%30.39 "Hg4 mi
7:50 am21 °FLow clouds.3 mph86%30.39 "Hg4 mi
7:20 am21 °FLow clouds.5 mph86%30.39 "Hg5 mi
6:50 am21 °FLight snow. Low clouds.3 mph86%30.39 "Hg3 mi
6:20 am21 °FOvercast.3 mph86%30.39 "Hg4 mi
5:50 am21 °FOvercast.5 mph86%30.39 "Hg4 mi
5:20 am21 °FPassing clouds.5 mph86%30.39 "Hg4 mi
4:50 am21 °FOvercast.3 mph86%30.39 "Hg4 mi
4:20 am21 °FOvercast.3 mph86%30.39 "Hg4 mi
3:50 am21 °FOvercast.5 mph86%30.39 "Hg4 mi
3:20 am21 °FOvercast.5 mph86%30.39 "Hg4 mi
2:50 am21 °FOvercast.5 mph86%30.39 "Hg4 mi
2:20 am21 °FOvercast.5 mph86%30.39 "Hg4 mi
1:50 am21 °FOvercast.5 mph80%30.39 "Hg5 mi
12:50 am21 °FOvercast.1 mph80%30.39 "Hg4 mi
12:20 am21 °FOvercast.2 mph80%30.39 "Hg4 mi
11:50 pm
Thu, Jan 19
21 °FOvercast.1 mph80%30.39 "Hg4 mi
11:20 pm19 °FOvercast.1 mph86%30.39 "Hg4 mi
Weather by CustomWeather, © 2017

See weather overviewHow to use our weather pages